User: anonymous   Login
Location: Unspecified
(0.0000°N, 0.0000°E)
Time: 09:55:53
(UTC+00:00)
Language:

WGS 9 (USA 275) - Orbit

View from above orbital plane
View from above orbital plane
View from above satellite
View from above satellite

Ground track
Ground track

The orbit data is extracted from the following two-line orbital elements,

1 42075U 17016A   20047.67733076 +.00000058 +00000-0 +00000-0 0  9998
2 42075 000.0071 117.1602 0000424 335.4753 354.0856 01.00270804010718
Epoch (UTC): 16 February 2020 16:15:21
Eccentricity: 0.0000424
inclination: 0.0071°
perigee height: 35785 km
apogee height: 35788 km
right ascension of ascending node: 117.1602°
argument of perigee: 335.4753°
revolutions per day: 1.00270804
mean anomaly at epoch: 354.0856°
orbit number at epoch: 1071

The dashed part of the orbit path shows where the satellite is in the earth's shadow,  

DLR